STARLINK-30772, 58135

Orbit data source: Space-Track

STARLINK-30772, 58135 is a payload satellite owned by SpaceX/Seattle (US) in LEO that was launched on Sun, 22 Oct 2023 UTC via an FALCON 9 launch vehicle from the Air Force Eastern Test Range (AFETR). Payload-class satellites include a variety of spacecraft equipped with specific instruments for various scientific and technological missions. These include communications satellites like Starlink; space stations such as the ISS; scientific satellites like the Hubble; Earth observation satellites from companies like Planet Labs, Umbra, and HawkEye 360; GPS; miniature CubeSats for education and research; and military/defense satellites.

Loading next visibility...
Identifier
58135, 2023-162T
Orbit
LEO
Country
Flag of USUS
Related business
Manufacturer
SpaceX/Seattle
Mission
Operational Commercial Communications
Bus & Motor
STARLINK V2M, Unknown motor
Mass
730 kg wet, ~700 kg dry
Launch date (UTC)
2023-10-22 (2 years ago)
Launch vehicle
FALCON 9
Launch site
Air Force Eastern Test Range (AFETR)
Object type
Payload
Rocket body
Debris
Shape & HBR
Box + 2 Pan, 17.7 m
Radar Cross Section
33.884 m², Large (>1 m²)

Expand to show TLE details & history
Last TLE update: 21 hours ago

TLE from 21 hours ago
0 STARLINK-30772
1 58135U 23162T   25348.72986374  .00004096  00000-0  31838-3 0  9999
2 58135  43.0049 235.2562 0001294 269.0413  91.0281 15.02504450119514
Epoch: 2025-12-14T17:31Z
TLE epoch observation values (Epoch: 2025-12-14T17:31:00.227Z)
Latitude
-0.00001°
Longitude
-111.13335°
Altitude
558.971 km
Speed
7.584 km/s
True Right ascension
15h 41m 01s
True Declination
0° 00' 00"
Sunlit
Object was in daylight at epoch
Visualization orbit readout
Latitude
Unknown
Longitude
Unknown
Altitude
Unknown
Speed
Unknown
Apparent Right ascension
Unknown
Apparent Declination
Unknown
Sunlit
N/A
Visualization observer readout
Local Sidereal Time
13:19:00
Azimuth
Unknown
Elevation
Unknown
Doppler factor
Unknown
Orbital elements
Apogee altitude
561.998 km
Perigee altitude
560.202 km
Semi-major axis
6,939.237 km
Eccentricity
0.00013
Inclination
43.0049°
RAAN
235.2562°
Arg. of periapsis
269.0413°
True anomaly
91.04293°
Mean anomaly
91.0281°
Eccentric anomaly
91.03551°
Mean motion
3.7547 °/min
Orbital period
95.88 mins
BSTAR
0.00031838
Loading maneuver chart data...
Computing Atmospheric mass density...
Loading historical data...
Loading historical data...
Loading historical data...
Loading historical data...
Loading historical data...
Loading historical data...
Loading historical data...

Documentation

Showing up to 5 results
|